Regional Weather Roundup
Issued by NWS

Home | Current Version | Previous Version | Graphics & Text | Print | Product List | Glossary On
Versions: 1 2 3 4 5 6 7 8 9 10 11 12 13 14 15 16 17 18 19 20 21 22 23 24 25 26 27 28 29 30 31 32 33 34 35 36 37 38 39 40 41 42 43 44 45 46 47 48 49 50
179
ASUS44 KLIX 051105
RWRLA
LOUISIANA WEATHER ROUNDUP
NATIONAL WEATHER SERVICE NEW ORLEANS LA
500 AM CST THU MAR 05 2015

NOTE: "FAIR" INDICATES FEW OR NO CLOUDS BELOW 12,000 FEET WITH NO
      SIGNIFICANT WEATHER AND/OR OBSTRUCTIONS TO VISIBILITY.
      SKY/WX - SKY CONDITION AND SIGNIFICANT WEATHER.
      TMP - AIR TEMPERATURE.    DP   - DEWPOINT TEMPERATURE.
      RH  - RELATIVE HUMIDITY.  PRES - PRESSURE.
      HX  - HEAT INDEX.         WCI  - WIND CHILL INDEX.

*  THESE STATIONS ARE NOT NWS OR FAA STATIONS AND ARE NOT UNDER
   NWS QUALITY CONTROL.

LAZ040-048-061>063-065-066-069-051200-
SOUTHEAST LOUISIANA

CITY           SKY/WX    TMP DP  RH WIND       PRES   REMARKS
N.O. AUDUBON     N/A     67  67 100 MISG        N/A
N.O. INTL ARPT CLOUDY    71  68  90 SW8       29.93R
N.O. LAKEFRONT MOCLDY    71  67  87 SW14      29.93R
SLIDELL        CLOUDY    70  69  97 W6        29.93R
BATON ROUGE    CLOUDY    40  37  89 N13G23    30.07R WCI  32
BOOTHVILLE     MOCLDY    68  68 100 S5        29.95S FOG
BELLE CHASSE   PTCLDY    71  67  87 SW9       29.93R
BOGALUSA*        N/A     52  47  83 N15G22    30.00R
GALLIANO*      MOSUNNY   67  66  96 S7        29.94R
NEW ROADS*     LGT RAIN  37  35  91 NW21G29   30.13R WCI  26
GONZALES*      LGT RAIN  45  45 100 NW20G28   30.02R
HAMMOND*       CLOUDY    46  45  93 N21       30.05R
HOUMA*         MOCLDY    71  69  95 SW7       29.94R
PORT FOURCHON* PTSUNNY   70  68  94 SW6       29.97S FOG

$$

LAZ041-044-053-054-051200-
SOUTHWEST LOUISIANA

CITY           SKY/WX    TMP DP  RH WIND       PRES   REMARKS
LAKE CHARLES   CLOUDY    39  36  89 N18G28    30.14R WCI  30
LAFAYETTE      LGT RAIN  39  37  92 N20G30    30.13R WCI  29
PATTERSON      CLOUDY    52  46  82 N17       30.00R
SALT POINT       N/A     49  49 100 N12G22    29.98R
NEW IBERIA     LGT RAIN  41  38  89 N21G30    30.10R
CHENAULT AIRPK NOT AVBL

$$

LAZ027-028-051200-
CENTRAL LOUISIANA

CITY           SKY/WX    TMP DP  RH WIND       PRES   REMARKS
FORT POLK      LGT RAIN  34  33  97 N16G25    30.19R VSB 1/2 WCI  24
ALEXANDRIA INT HVY RAIN  34  32  92 N14G23    30.20F FOG     WCI  25
ALEXANDRIA     RAIN      35  31  85 VRB7G16   30.22R WCI  29

$$

LAZ001-002-051200-
NORTHWEST LOUISIANA

CITY           SKY/WX    TMP DP  RH WIND       PRES   REMARKS
SHREVEPORT     LGT SNOW  30  26  85 N17G29    30.34R FOG     WCI  18
BARKSDALE AFB  LGTSLEET  30  27  88 N16G25    30.36R WCI  19
DTN SHREVEPORT LGT SNOW  29  26  89 N14G21    30.37R FOG     WCI  18

$$

LAZ014-016-051200-
NORTHEAST LOUISIANA

CITY           SKY/WX    TMP DP  RH WIND       PRES   REMARKS
MONROE         FRZ RAIN  30  27  88 N22G36    30.31R FOG     WCI  17
TALLULAH       MIX PCPN  33  30  88 N17G23    30.23R WCI  22

$$




USA.gov is the U.S. government's official web portal to all federal, state and local government web resources and services.